Location: Street
(51.1247°N, 2.7429°W)
Time: 18:48:53
(UTC+00:00)

N. Korean satellite - Pass Details

Date: 04 November 2020
Orbit: 453 x 503 km, 97.2° (Epoch: 04 December)

Event Time Altitude Azimuth Distance (km) Brightness Sun altitude
Rises 05:00:34 0° 25° (NNE) 2,480 10.5 -20.5°
Reaches altitude 10° 05:02:57 10° 41° (NE) 1,602 9.7 -20.1°
Maximum altitude 05:05:39 21° 93° (E) 1,069 9.2 -19.7°
Drops below altitude 10° 05:08:21 10° 146° (SE) 1,597 9.6 -19.2°
Sets 05:10:43 0° 162° (SSE) 2,472 10.4 -18.9°
